1281484827217,110.243
1281484887217,110.584
1281484947217,110.802
1281485007217,110.474
1281485067217,110.400
1281485127217,110.452
1281485187217,110.194
1281485247217,110.571
1281485307217,110.552
1281485367217,110.538
1281485427217,110.377
1281485487217,110.544
1281485547217,110.335
1281485607217,110.522
1281485667217,110.407
1281485727217,110.616
1281485787217,110.420
1281485847217,110.271
1281485907217,110.603
1281485967217,110.683
1281486027217,110.404
1281486087217,110.377
1281486147217,110.636
1281486207217,110.720
1281486267217,110.742
1281486327217,110.553
1281486387217,110.399
1281486447217,110.551
1281486507217,110.460
1281486567217,110.326
1281486627217,110.542
1281486687217,110.427
1281486747217,110.526
1281486807217,110.441
1281486867217,110.407
1281486927217,110.317
1281486987217,110.292
1281487047217,110.411
1281487107217,110.486
1281487167217,110.579
1281487227217,110.428
1281487287217,110.649
1281487347217,110.606
1281487407217,110.565
1281487467217,110.543
1281487527217,110.615
1281487587217,110.475
1281487647217,110.431
1281487707217,110.500
1281487767217,110.607
1281487827217,110.461
1281487887217,110.547
1281487947217,110.546
1281488007217,110.499
1281488067217,110.450
1281488127217,110.404
1281488187217,110.604
1281488247217,110.651
1281488307217,110.650
1281488367217,110.414
1281488427226,110.437
1281488487226,110.332
1281488547226,110.460
1281488607226,110.624
1281488667226,110.412
1281488727226,110.447
1281488787226,110.533
1281488847226,110.630
1281488907226,110.566
1281488967226,110.307
1281489027226,110.476
1281489087226,110.486
1281489147226,110.692
1281489207226,110.406
1281489267226,110.551
1281489327226,110.753
1281489387226,110.513
1281489447226,110.593
1281489507226,110.445
1281489567226,110.502
1281489627226,110.228
1281489687226,110.496
1281489747226,110.544
1281489807226,110.522
1281489867226,110.524
1281489927226,110.597
1281489987226,110.472
1281490047226,110.415
1281490107226,110.248
1281490167226,110.463
1281490227226,110.206
1281490287226,110.428
1281490347226,110.181
1281490407226,110.445
1281490467226,110.287
1281490527226,110.255
1281490587226,110.371
1281490647226,110.193
1281490707226,110.454
1281490767226,110.451
1281490827226,110.517
1281490887226,110.249
1281490947226,110.356
1281491007226,110.302
1281491067226,110.305
1281491127226,110.234
1281491187226,110.308
1281491247226,110.606
1281491307226,110.432
1281491367226,110.501
1281491427226,110.278
1281491487226,110.557
1281491547226,110.416
1281491607226,110.348
1281491667226,110.368
1281491727226,110.419
1281491787226,110.413
1281491847226,110.359
1281491907226,110.475
1281491967226,110.069
1281492027235,110.055
1281492087235,110.071
1281492147235,110.211
1281492207235,110.216
1281492267235,110.261
1281492327235,110.146
1281492387235,110.310
1281492447235,110.274
1281492507235,110.390
1281492567235,110.448
1281492627235,110.135
1281492687235,110.348
1281492747235,110.370
1281492807235,110.202
1281492867235,110.213
1281492927235,110.097
1281492987235,110.223
1281493047235,110.059
1281493107235,110.179
1281493167235,110.247
1281493227235,110.164
1281493287235,110.426
1281493347235,110.222
1281493407235,110.374
1281493467235,110.407
1281493527235,110.303
1281493587235,110.327
1281493647235,110.133
1281493707235,110.393
1281493767235,110.397
1281493827235,110.549
1281493887235,110.300
1281493947235,110.571
1281494007235,110.490
1281494067235,110.277
1281494127235,110.341
1281494187235,110.452
1281494247235,110.394
1281494307235,110.452
1281494367235,110.284
1281494427235,110.284
1281494487235,110.431
1281494547235,110.219
1281494607235,110.270
1281494667235,110.521
1281494727235,110.638
1281494787235,110.623
1281494847235,110.540
1281494907235,110.378
1281494967235,110.337
1281495027235,110.388
1281495087235,110.154
1281495147235,110.351
1281495207235,110.201
1281495267235,110.239
1281495327235,110.217
1281495387235,110.312
1281495447235,110.071
1281495507235,110.225
1281495567235,110.062
1281495627244,110.327
1281495687244,110.055
1281495747244,110.099
1281495807244,110.135
1281495867244,110.063
1281495927244,110.293
1281495987244,109.869
1281496047244,110.325
1281496107244,110.164
1281496167244,110.114
1281496227244,110.041
1281496287244,110.080
1281496347244,110.223
1281496407244,109.915
1281496467244,109.969
1281496527244,110.169
1281496587244,110.316
1281496647244,110.173
1281496707244,110.075
1281496767244,110.052
1281496827244,110.284
1281496887244,109.974
1281496947244,109.926
1281497007244,110.301
1281497067244,110.121
1281497127244,109.916
1281497187244,110.233
1281497247244,110.046
1281497307244,109.890
1281497367244,110.141
1281497427244,109.772
1281497487244,109.799
1281497547244,109.991
1281497607244,109.972
1281497667244,109.828
1281497727244,110.057
1281497787244,109.945
1281497847244,110.027
1281497907244,109.877
1281497967244,109.915
1281498027244,110.164
1281498087244,109.908
1281498147244,109.933
1281498207244,109.664
1281498267244,109.734
1281498327244,110.061
1281498387244,110.014
1281498447244,110.161
1281498507244,109.729
1281498567244,109.792
1281498627244,109.869
1281498687244,109.612
1281498747244,109.621
1281498807244,109.558
1281498867244,109.726
1281498927244,109.610
1281498987244,109.735
1281499047244,109.824
1281499107244,109.626
1281499167244,109.432
1281499227253,109.774
1281499287253,109.716
1281499347253,109.689
1281499407253,109.719
1281499467253,109.835
1281499527253,109.768
1281499587253,109.733
1281499647253,109.818
1281499707253,109.833
1281499767253,109.915
1281499827253,109.638
1281499887253,109.964
1281499947253,110.024
1281500007253,109.950
1281500067253,109.594
1281500127253,109.507
1281500187253,109.603
1281500247253,109.837
1281500307253,109.672
1281500367253,109.667
1281500427253,109.465
1281500487253,109.403
1281500547253,109.668
1281500607253,109.596
1281500667253,109.331
1281500727253,109.614
1281500787253,109.597
1281500847253,109.475
1281500907253,109.500
1281500967253,109.565
1281501027253,109.465
1281501087253,109.621
1281501147253,109.606
1281501207253,109.463
1281501267253,109.472
1281501327253,109.270
1281501387253,109.296
1281501447253,109.414
1281501507253,109.542
1281501567253,109.441
1281501627253,109.380
1281501687253,109.379
1281501747253,109.423
1281501807253,109.383
1281501867253,109.409
1281501927253,109.269
1281501987253,109.314
1281502047253,109.203
1281502107253,109.419
1281502167253,109.422
1281502227253,109.000
1281502287253,109.248
1281502347253,109.051
1281502407253,109.208
1281502467253,109.286
1281502527253,109.047
1281502587253,109.220
1281502647253,109.344
1281502707253,109.559
1281502767253,109.496
1281502827262,109.306
1281502887262,108.886
1281503427262,109.239
1281503487262,109.052
1281503547262,109.164
1281503607262,109.031
1281503667262,109.245
1281503727262,109.168
1281503787262,109.203
1281503847262,109.168
1281503907262,109.057
1281503967262,108.817
1281504027262,109.055
1281504087262,108.989
1281504147262,109.154
1281504207262,109.404
1281504267262,109.064
1281504327262,109.123
1281504387262,108.969
1281504447262,108.924
1281504507262,109.005
1281504567262,108.973
1281504627262,109.263
1281504687262,109.182
1281504747262,109.126
1281504807262,109.095
1281504867262,109.176
1281504927262,109.231
1281504987262,109.144
1281505047262,109.182
1281505107262,109.003
1281505167262,108.969
1281505227262,109.313
1281505287262,109.142
1281505347262,109.267
1281505407262,109.152
1281505467262,109.111
1281505527262,109.072
1281505587262,109.211
1281505647262,109.203
1281505707262,109.272
1281505767262,109.453
1281505827262,109.294
1281505887262,109.116
1281505947262,109.291
1281506007262,109.293
1281506067262,109.076
1281506127262,109.448
1281506187262,109.159
1281506247262,109.454
1281506307262,109.384
1281506367262,109.490
1281506427270,109.329
1281506487270,109.126
1281506547270,109.533
1281506607270,109.442
1281506667270,109.327
1281506727270,109.274
1281506787270,109.320
1281506847270,109.300
1281506907270,109.457
1281506967270,109.288
1281507027270,109.717
1281507087270,109.345
1281507147270,109.383
1281507207270,109.544
1281507267270,109.504
1281507327270,109.561
1281507387270,109.424
1281507447270,109.425
1281507507270,109.443
1281507567270,109.051
1281507627270,109.121
1281507687270,109.375
1281507747270,109.403
1281507807270,109.625
1281507867270,109.569
1281507927270,109.618
1281507987270,109.460
1281508047270,109.533
1281508107270,109.228
1281508167270,109.631
1281508227270,109.582
1281508287270,109.445
1281508347270,109.592
1281508407270,109.426
1281508467270,109.429
1281508527270,109.226
1281508587270,109.350
1281508647270,109.358
1281508707270,109.431
1281508767270,109.490
1281508827270,109.422
1281508887270,109.359
1281508947270,109.456
1281509007270,109.329
1281509067270,109.429
1281509127270,109.499
1281509187270,109.485
1281509247270,109.670
1281509307270,109.440
1281509367270,109.588
1281509427270,109.422
1281509487270,109.628
1281509547270,109.519
1281509607270,109.315
1281509667270,109.511
1281509727270,109.609
1281509787270,109.581
1281509847270,109.515
1281509907270,109.530
1281509967270,109.402
1281510027279,109.346
1281510087279,109.422
1281510147279,109.780
1281510207279,109.522
1281510267279,109.564
1281510327279,109.719
1281510387279,109.420
1281510447279,109.474
1281510507279,109.561
1281510567279,109.507
1281510627279,109.716
1281510687279,109.518
1281510747279,109.554
1281510807279,109.561
1281510867279,109.432
1281510927279,109.889
1281510987279,109.711
1281511047279,109.593
1281511107279,109.681
1281511167279,109.703
1281511227279,109.586
1281511287279,109.736
1281511347279,109.811
1281511407279,109.495
1281511467279,109.844
1281511527279,109.611
1281511587279,109.763
1281511647279,109.780
1281511707279,109.738
1281511767279,109.654
1281511827279,110.044
1281511887279,110.005
1281511947279,109.755
1281512007279,109.981
1281512067279,109.701
1281512127279,109.773
1281512187279,109.429
1281512247279,109.700
1281512307279,109.818
1281512367279,109.628
1281512427279,109.812
1281512487279,109.554
1281512547279,109.506
1281512607279,109.500
1281512667279,109.357
1281512727279,109.622
1281512787279,109.392
1281512847279,109.511
1281512907279,109.384
1281512967279,109.485
1281513027279,109.495
1281513087279,109.268
1281513147279,109.330
1281513207279,109.274
1281513267279,109.389
1281513327279,109.447
1281513387279,109.598
1281513447279,109.245
1281513507279,109.317
1281513567279,109.330
1281513627288,109.346
1281513687288,109.691
1281513747288,109.249
1281513807288,109.249
1281513867288,109.259
1281513927288,109.448
1281513987288,109.495
1281514047288,109.381
1281514107288,109.169
1281514167288,109.321
1281514227288,109.215
1281514287288,109.308
1281514347288,109.119
1281514407288,109.013
1281514467288,109.344
1281514527288,109.159
1281514587288,109.177
1281514647288,109.230
1281514707288,109.191
1281514767288,109.202
1281514827288,109.193
1281514887288,109.044
1281514947288,109.057
1281515007288,109.157
1281515067288,108.992
1281515127288,109.285
1281515187288,108.851
1281515247288,109.319
1281515307288,109.152
1281515367288,109.043
1281515427288,109.220
1281515487288,109.233
1281515547288,109.151
1281515607288,109.077
1281515667288,109.300
1281515727288,109.132
1281515787288,108.931
1281515847288,109.054
1281515907288,109.195
1281515967288,109.175
1281516027288,109.272
1281516087288,109.151
1281516147288,109.187
1281516207288,108.975
1281516267288,109.017
1281516327288,109.098
1281516387288,109.039
1281516447288,109.113
1281516507288,108.962
1281516567288,109.226
1281516627288,108.933
1281516687288,108.970
1281516747288,109.094
1281516807288,108.851
1281516867288,108.949
1281516927288,109.096
1281516987288,108.801
1281517047288,108.920
1281517107288,108.852
1281517167288,108.719
1281517227296,108.859
1281517287296,108.814
1281517347296,108.998
1281517407296,108.713
1281517467296,108.682
1281517527296,109.136
1281517587296,108.844
1281517647296,108.608
1281517707296,108.724
1281517767296,108.581
1281517827296,108.677
1281517887296,108.509
1281517947296,108.506
1281518007296,108.615
1281518067296,108.778
1281518127296,108.685
1281518187296,108.724
1281518247296,108.616
1281518307296,108.702
1281518367296,108.549
1281518427296,108.550
1281518487296,108.600
1281518547296,108.786
1281518607296,108.610
1281518667296,108.540
1281518727296,108.674
1281518787296,108.705
1281518847296,108.725
1281518907296,108.749
1281518967296,108.587
1281519027296,108.780
1281519087296,108.588
1281519147296,108.759
1281519207296,108.579
1281519267296,108.700
1281519327296,108.715
1281519387296,108.829
1281519447296,108.698
1281519507296,108.514
1281519567296,108.798
1281519627296,108.383
1281519687296,108.673
1281519747296,108.918
1281519807296,108.864
1281519867296,108.937
1281519927296,108.920
1281519987296,108.778
1281520047296,108.742
1281520107296,108.895
1281520167296,108.625
1281520227296,108.837
1281520287296,108.730
1281520347296,108.927
1281520407296,108.943
1281520467296,108.954
1281520527296,108.973
1281520587296,109.133
1281520647296,109.137
1281520707296,108.749
1281520767296,109.040
1281520827305,109.030
1281520887305,108.853
1281520947305,108.997
1281521007305,109.176
1281521067305,108.834
1281521127305,109.042
1281521187305,109.149
1281521247305,109.124
1281521307305,109.125
1281521367305,109.005
1281521427305,109.325
1281521487305,109.035
1281521547305,109.321
1281521607305,109.237
1281521667305,109.105
1281521727305,109.160
1281521787305,109.010
1281521847305,108.909
1281521907305,109.298
1281521967305,108.969
1281522027305,109.013
1281522087305,109.027
1281522147305,109.150
1281522207305,109.081
1281522267305,109.172
1281522327305,108.909
1281522387305,108.981
1281522447305,109.348
1281522507305,109.321
1281522567305,109.230
1281522627305,109.202
1281522687305,109.234
1281522747305,109.290
1281522807305,109.170
1281522867305,109.263
1281522927305,109.228
1281522987305,109.554
1281523047305,109.411
1281523107305,109.229
1281523167305,109.172
1281523227305,109.332
1281523287305,109.207
1281523347305,109.413
1281523407305,109.523
1281523467305,109.436
1281523527305,109.549
1281523587305,109.530
1281523647305,109.585
1281523707305,109.229
1281523767305,109.424
1281523827305,109.388
1281523887305,109.321
1281523947305,109.647
1281524007305,109.157
1281524067305,109.537
1281524127305,109.632
1281524187305,109.275
1281524247305,109.433
1281524307305,109.272
1281524367305,109.508
1281524427314,109.335
1281524487314,109.655
1281524547314,109.429
1281524607314,109.311
1281524667314,109.488
1281524727314,109.552
1281524787314,109.526
1281524847314,109.555
1281524907314,109.504
1281524967314,109.390
1281525027314,109.417
1281525087314,109.352
1281525147314,109.635
1281525207314,109.462
1281525267314,109.582
1281525327314,109.732
1281525387314,109.404
1281525447314,109.543
1281525507314,109.627
1281525567314,109.579
1281525627314,109.565
1281525687314,109.468
1281525747314,109.517
1281525807314,109.204
1281525867314,109.430
1281525927314,109.259
1281525987314,109.661
1281526047314,109.442
1281526107314,109.412
1281526167314,109.441
1281526227314,109.566
1281526287314,109.522
1281526347314,109.423
1281526407314,109.593
1281526467314,109.645
1281526527314,109.493
1281526587314,109.605
1281526647314,109.490
1281526707314,109.478
1281526767314,109.469
1281526827314,109.699
1281526887314,109.411
1281526947314,109.560
1281527007314,109.434
1281527067314,109.491
1281527127314,109.686
1281527187314,109.449
1281527247314,109.615
1281527307314,109.380
1281527367314,109.285
1281527427314,109.415
1281527487314,109.336
1281527547314,109.525
1281527607314,109.493
1281527667314,109.409
1281527727314,109.432
1281527787314,109.505
1281527847314,109.344
1281527907314,109.413
1281527967314,109.422
1281528027322,109.384
1281528087322,109.695
1281528147322,109.453
1281528207322,109.433
1281528267322,109.400
1281528327322,109.480
1281528387322,109.492
1281528447322,109.508
1281528507322,109.359
1281528567322,109.617
1281528627322,109.341
1281528687322,109.530
1281528747322,109.279
1281528807322,109.461
1281528867322,109.157
1281528927322,109.075
1281528987322,109.367
1281529047322,109.193
1281529107322,109.098
1281529167322,109.309
1281529227322,109.239
1281529287322,109.466
1281529347322,109.224
1281529407322,109.476
1281529467322,109.240
1281529527322,109.386
1281529587322,109.492
1281529647322,109.515
1281529707322,109.228
1281529767322,109.312
1281529827322,109.371
1281529887322,109.288
1281529947322,109.516
1281530007322,109.387
1281530067322,109.564
1281530127322,109.458
1281530187322,109.500
1281530247322,109.276
1281530307322,109.200
1281530367322,109.300
1281530427322,109.341
1281530487322,109.292
1281530547322,109.330
1281530607322,109.645
1281530667322,109.389
1281530727322,109.380
1281530787322,109.495
1281530847322,109.555
1281530907322,109.645
1281530967322,109.669
1281531027322,109.473
1281531087322,109.449
1281531147322,109.439
1281531207322,109.554
1281531267322,109.600
1281531327322,109.268
1281531387322,109.362
1281531447322,109.785
1281531507322,109.716
1281531567322,109.468
1281531627331,109.566
1281531687331,109.572
1281531747331,109.703
1281531807331,109.700
1281531867331,109.677
1281531927331,109.630
1281531987331,109.827
1281532047331,109.720
1281532107331,109.637
1281532167331,109.553
1281532227331,109.664
1281532287331,109.540
1281532347331,109.696
1281532407331,109.710
1281532467331,109.792
1281532527331,109.277
1281532587331,109.669
1281532647331,109.640
1281532707331,109.587
1281532767331,109.762
1281532827331,109.628
1281532887331,109.677
1281532947331,109.897
1281533007331,109.754
1281533067331,110.009
1281533127331,109.796
1281533187331,110.056
1281533247331,109.952
1281533307331,109.865
1281533367331,110.118
1281533427331,109.816
1281533487331,109.930
1281533547331,109.867
1281533607331,110.158
1281533667331,109.787
1281533727331,110.080
1281533787331,109.908
1281533847331,110.243
1281533907331,110.164
1281533967331,109.987
1281534027331,110.131
1281534087331,109.851
1281534147331,110.023
1281534207331,110.189
1281534267331,110.231
1281534327331,110.078
1281534387331,110.211
1281534447331,110.059
1281534507331,110.579
1281534567331,110.299
1281534627331,110.170
1281534687331,110.320
1281534747331,110.049
1281534807331,110.408
1281534867331,110.318
1281534927331,110.333
1281534987331,110.342
1281535047331,110.475
1281535107331,110.440
1281535167331,110.132
1281535227341,110.532
1281535287341,110.311
1281535347341,110.330
1281535407341,110.297
1281535467341,110.228
1281535527341,110.658
1281535587341,110.156
1281535647341,110.350
1281535707341,110.187
1281535767341,110.478
1281535827341,110.468
1281535887341,110.077
1281535947341,110.128
1281536007341,110.199
1281536067341,110.302
1281536127341,110.150
1281536187341,110.198
1281536247341,110.204
1281536307341,110.221
1281536367341,110.004
1281536427341,110.196
1281536487341,110.322
1281536547341,110.161
1281536607341,109.829
1281536667341,110.191
1281536727341,110.109
1281536787341,110.364
1281536847341,110.018
1281536907341,110.052
1281536967341,110.216
1281537027341,110.254
1281537087341,110.178
1281537147341,110.160
1281537207341,110.374
1281537267341,109.995
1281537327341,110.063
1281537387341,110.209
1281537447341,110.436
1281537507341,110.121
1281537567341,110.492
1281537627341,110.459
1281537687341,110.447
1281537747341,110.238
1281537807341,110.464
1281537867341,110.359
1281537927341,110.387
1281537987341,110.558
1281538047341,110.544
1281538107341,110.540
1281538167341,110.606
1281538227341,110.432
1281538287341,110.728
1281538347341,110.513
1281538407341,110.427
1281538467341,110.685
1281538527341,110.775
1281538587341,110.635
1281538647341,110.860
1281538707341,110.776
1281538767341,110.603
1281538827350,110.541
1281538887350,110.789
1281538947350,110.805
1281539007350,110.617
1281539067350,110.732
1281539127350,110.603
1281539187350,110.654
1281539247350,110.788
1281539307350,110.609
1281539367350,110.669
1281539427350,110.812
1281539487350,110.599
1281539547350,110.530
1281539607350,111.072
1281539667350,110.993
1281539727350,110.890
1281539787350,110.985
1281539847350,110.970
1281539907350,111.029
1281539967350,110.547
1281540027350,110.826
1281540087350,110.758
1281540147350,110.924
1281540207350,110.731
1281540267350,110.568
1281540327350,110.588
1281540387350,110.658
1281540447350,110.806
1281540507350,110.712
1281540567350,110.606
1281540627350,110.618
1281540687350,110.879
1281540747350,110.764
1281540807350,110.613
1281540867350,110.661
1281540927350,110.752
1281540987350,110.630
1281541047350,110.514
1281541107350,110.685
1281541167350,110.881
1281541227350,110.745
1281541287350,110.939
1281541347350,110.604
1281541407350,110.859
1281541467350,110.730
1281541527350,110.966
1281541587350,110.693
1281541647350,110.934
1281541707350,110.860
1281541767350,110.869
1281541827350,110.627
1281541887350,110.894
1281541947350,110.711
1281542007350,110.891
1281542067350,110.796
1281542127350,110.830
1281542187350,110.944
1281542247350,110.819
1281542307350,111.108
1281542367350,110.941
1281542427360,110.938
1281542487360,110.742
1281542547360,110.867
1281542607360,110.920
1281542667360,110.802
1281542727360,110.826
1281542787360,110.910
1281542847360,110.763
1281542907360,110.682
1281542967360,111.196
1281543027360,110.821
1281543087360,110.817
1281543147360,110.907
1281543207360,111.043
1281543267360,110.894
1281543327360,110.954
1281543387360,111.009
1281543447360,110.916
1281543507360,111.021
1281543567360,111.040
1281543627360,110.964
1281543687360,110.758
1281543747360,111.127
1281543807360,110.902
1281543867360,110.919
1281543927360,110.736
1281543987360,111.053
1281544047360,111.178
1281544107360,111.072
1281544167360,111.172
1281544227360,111.090
1281544287360,111.057
1281544347360,110.959
1281544407360,111.341
1281544467360,111.122
1281544527360,111.242
1281544587360,111.167
1281544647360,111.045
1281544707360,111.124
1281544767360,111.139
1281544827360,111.043
1281544887360,111.143
1281544947360,110.978
1281545007360,111.020
1281545067360,111.146
1281545127360,111.049
1281545187360,110.983
1281545247360,110.998
1281545307360,110.883
1281545367360,110.784
1281545427360,110.790
1281545487360,110.975
1281545547360,111.107
1281545607360,111.007
1281545667360,110.858
1281545727360,111.069
1281545787360,110.837
1281545847360,110.978
1281545907360,110.839
1281545967360,110.781
1281546027370,110.872
1281546087370,110.722
1281546147370,110.904
1281546207370,110.767
1281546267370,110.507
1281546327370,110.728
1281546387370,110.653
1281546447370,110.720
1281546507370,110.543
1281546567370,110.627
1281546627370,110.561
1281546687370,110.607
1281546747370,110.641
1281546807370,110.533
1281546867370,110.469
1281546927370,110.650
1281546987370,110.457
1281547047370,110.454
1281547107370,110.347
1281547167370,110.452
1281547227370,110.446
1281547287370,110.477
1281547347370,110.353
1281547407370,110.495
1281547467370,110.585
1281547527370,110.350
1281547587370,110.684
1281547647370,110.344
1281547707370,110.467
1281547767370,110.457
1281547827370,110.145
1281547887370,110.644
1281547947370,110.290
1281548007370,110.428
1281548067370,110.206
1281548127370,110.303
1281548187370,110.394
1281548247370,110.430
1281548307370,110.440
1281548367370,110.381
1281548427370,110.243
1281548487370,110.342
1281548547370,110.297
1281548607370,110.368
1281548667370,110.251
1281548727370,110.162
1281548787370,110.155
1281548847370,110.152
1281548907370,110.115
1281548967370,110.558
1281549027370,110.346
1281549087370,110.373
1281549147370,110.044
1281549207370,110.109
1281549267370,110.182
1281549327370,110.342
1281549387370,110.350
1281549447370,110.325
1281549507370,110.420
1281549567370,110.323
1281549627380,110.299
1281549687380,110.421
1281549747380,110.366
1281549807380,110.225
1281549867380,110.287
1281549927380,110.274
1281549987380,110.287
1281550047380,110.423
1281550107380,110.175
1281550167380,110.368
1281550227380,110.449
1281550287380,110.339
1281550347380,110.286
1281550407380,110.478
1281550467380,110.338
1281550527380,110.283
1281550587380,110.314
1281550647380,110.400